EW2286 Weather Reports


time (UTC)temp
C
wind
direction
speed
KPH
gust
KPH
rain 1hr
cm
rain 24hr
cm
rain mn
cm
humidity
%
barometer
mb
20260504044537 9 240 3.2 9.7 0.00 0.00 0.00 59 1004.6
20260504043046 10 241 9.7 17.7 0.00 0.00 0.00 58 1004.7
20260504041537 10 205 12.9 24.1 0.00 0.00 0.00 58 1004.8
20260504040042 10 234 11.3 24.1 0.00 0.00 0.00 56 1004.7
20260504034546 10 193 9.7 29.0 0.00 0.00 0.00 53 1004.7
20260504033037 10 251 12.9 24.1 0.00 0.00 0.00 52 1004.7
20260504031548 10 217 6.4 14.5 0.00 0.00 0.00 50 1004.6
20260504030050 10 233 6.4 19.3 0.00 0.00 0.00 50 1004.7
20260504024540 10 174 6.4 17.7 0.00 0.00 0.00 51 1004.8
20260504023041 10 189 3.2 9.7 0.00 0.00 0.00 46 1004.8
20260504021545 11 222 4.8 16.1 0.00 0.00 0.00 44 1004.9
20260504020038 10 253 6.4 16.1 0.00 0.00 0.00 45 1004.9
20260504014536 9 241 3.2 8.0 0.00 0.00 0.00 52 1005.0
20260504013037 9 156 6.4 11.3 0.00 0.00 0.00 54 1005.1
20260504011539 9 195 3.2 9.7 0.00 0.00 0.00 53 1004.9
20260504010045 10 196 4.8 12.9 0.00 0.00 0.00 52 1004.7
20260504004544 10 176 6.4 14.5 0.00 0.00 0.00 51 1004.7
20260504003037 10 168 6.4 16.1 0.00 0.00 0.00 49 1004.7
20260504001539 11 157 4.8 17.7 0.00 0.00 0.00 48 1004.6
20260504000040 11 178 4.8 16.1 0.00 0.00 0.00 45 1004.5
20260503234541 12 195 8.0 22.5 0.00 0.00 0.00 37 1004.5
20260503233038 13 283 9.7 20.9 0.00 0.00 0.00 27 1004.3
20260503231538 13 262 12.9 22.5 0.00 0.00 0.00 25 1004.3
20260503230050 15 279 6.4 14.5 0.00 0.00 0.00 25 1004.3
20260503224535 15 215 6.4 19.3 0.00 0.00 0.00 27 1004.4
20260503223036 15 291 12.9 24.1 0.00 0.00 0.00 24 1004.3
20260503221546 14 236 4.8 19.3 0.00 0.00 0.00 27 1004.5
20260503220040 15 241 19.3 30.6 0.00 0.00 0.00 24 1004.6
20260503214551 14 307 9.7 24.1 0.00 0.00 0.00 26 1004.7
20260503213037 15 289 14.5 25.7 0.00 0.00 0.00 25 1004.8
20260503211537 15 252 16.1 30.6 0.00 0.00 0.00 24 1004.6
20260503210035 15 236 6.4 16.1 0.00 0.00 0.00 27 1004.7
20260503204543 13 257 12.9 22.5 0.00 0.00 0.00 27 1004.9
20260503203038 14 333 9.7 20.9 0.00 0.00 0.00 26 1005.0
20260503201541 12 311 6.4 24.1 0.00 0.00 0.00 29 1005.1
20260503200038 14 265 12.9 24.1 0.00 0.00 0.00 26 1005.5
20260503194545 13 281 6.4 24.1 0.00 0.00 0.00 28 1005.6
20260503193037 14 256 20.9 33.8 0.00 0.00 0.00 27 1005.9
20260503191538 13 316 12.9 27.4 0.00 0.00 0.00 27 1006.1
20260503190043 13 229 12.9 27.4 0.00 0.00 0.00 29 1006.4
20260503184539 13 278 8.0 24.1 0.00 0.00 0.00 30 1006.6
20260503183041 12 295 9.7 22.5 0.00 0.00 0.00 32 1006.9
20260503181554 12 269 8.0 24.1 0.00 0.00 0.00 32 1007.1
20260503180046 11 262 9.7 25.7 0.00 0.00 0.00 33 1007.3
20260503174538 11 321 11.3 24.1 0.00 0.00 0.00 32 1007.4
20260503173040 11 286 9.7 20.9 0.00 0.00 0.00 33 1007.6
20260503171538 10 302 12.9 30.6 0.00 0.00 0.00 33 1007.7
20260503081535 4 307 3.2 8.0 0.00 0.00 0.00 59 1010.4
20260503071540 4 0 3.2 6.4 0.00 0.00 0.00 59 1010.4
20260503054540 4 282 0.0 3.2 0.00 0.00 0.00 58 1010.7